Regional Weather Roundup
Issued by NWS

Home | Current Version | Previous Version | Text Only | Print | Product List | Glossary Off
Versions: 1 2 3 4 5 6 7 8 9 10 11 12 13 14 15 16 17 18 19 20 21 22 23 24 25 26 27 28 29 30 31 32 33 34 35 36 37 38 39 40 41 42 43 44 45 46 47 48 49 50

000
ASUS43 KMPX 280710
RWRMN
WEATHER ROUNDUP FOR MINNESOTA
NATIONAL WEATHER SERVICE TWIN CITIES/CHANHASSEN MN
200 AM CDT TUE MAR 28 2017


NOTE: "FAIR" INDICATES FEW OR NO CLOUDS BELOW 12,000 FEET WITH NO
SIGNIFICANT WEATHER AND/OR OBSTRUCTIONS TO VISIBILITY. N/A MEANS
CURRENT SKY AND/OR WEATHER CONDITIONS ARE NOT AVAILABLE.

MNZ060>063-068>070-280800-
   Twin Cities Metro

CITY           SKY/WX    TMP DP  RH WIND       PRES   REMARKS
TWIN CITIES    CLOUDY    43  36  76 SW3       30.05R
ST PAUL        PTCLDY    37  36  96 CALM      30.06R
CRYSTAL        CLOUDY    36  30  79 CALM      30.04R
BLAINE         CLOUDY    37  34  87 CALM      30.05R
LAKEVILLE      PTCLDY    30  30 100 CALM      30.05R
EDEN PRAIRIE   CLOUDY    40  35  83 CALM      30.04R
SOUTH ST PAUL  CLOUDY    36  33  91 CALM      30.05R
LAKE ELMO      FAIR      34  32  93 CALM      30.06R FOG
$$
MNZ001>005-007-008-013>017-022>024-027-028-280800-
   Northwest Minnesota

CITY           SKY/WX    TMP DP  RH WIND       PRES   REMARKS
BEMIDJI        CLOUDY    33  28  80 CALM      30.06S
HALLOCK        CLOUDY    34  32  93 N5        30.11S WCI  30
ROSEAU         CLOUDY    36  30  80 N3        30.10R
WARROAD        CLOUDY    37  30  75 N3        30.10S
THIEF RVR FALL CLOUDY   N/A N/A N/A N8        30.10R
CROOKSTON      FOG       34  34 100 N5        30.10R VSB 3/4 WCI  30
FOSSTON        PTCLDY    36  34  93 NE3       30.07S
DETROIT LAKES  FOG       32  32 100 CALM      30.06S VSB 3/4
MOORHEAD       DRZL/FOG  36  36 100 N8        30.08S VSB 1/4
PARK RAPIDS    PTCLDY    36  25  64 N3        30.05R
MAHNOMEN       FAIR      35  34  98 E3        30.05S
$$
MNZ006-009>011-018-025>026-280800-
   North Central Minnesota

CITY           SKY/WX    TMP DP  RH WIND       PRES   REMARKS
BAUDETTE       CLOUDY    36  28  73 NW3       30.08R
FLAG ISLAND    PTCLDY    34  30  86 CALM      30.09S
INTL FALLS     CLOUDY    40  27  59 NE5       30.06R
WASKISH        CLOUDY    36  30  80 CALM      30.07S
BIG FORK       CLOUDY    34  25  69 CALM      30.06R
LONGVILLE      CLEAR     27  27 100 CALM      30.07R
GRAND RAPIDS   CLEAR     30  27  88 CALM      30.08R
CRANE LAKE     CLOUDY    28  27  93 CALM      30.08R
ORR            CLOUDY    28  23  80 CALM      30.03R
COOK           PTCLDY    27  25  93 CALM      30.05S
WALKER         FAIR      31  26  79 CALM      30.06S
$$
MNZ012-019>021-037-280800-
   Northeast Minnesota

CITY           SKY/WX    TMP DP  RH WIND       PRES   REMARKS
DULUTH         CLEAR     31  27  85 CALM      30.05R
ELY            CLEAR     27  23  86 CALM      30.04S
HIBBING        PTCLDY    25  24  96 NW3       30.06R
EVELETH        CLEAR     28  25  91 CALM      30.07R
DULUTH HARBOR  CLEAR     32  30  93 CALM      30.08S
TWO HARBORS    CLEAR     30  27  86 CALM      30.04S
SILVER BAY     CLEAR     27  27 100 CALM      30.04S
GRAND MARAIS     N/A     30  28  92 CALM      30.06R
G MARAIS ARPRT CLEAR     25  21  86 CALM      30.04R
$$
MNZ029>031-032-039>041-046>048-054>057-064-280800-
   West Central Minnesota

CITY           SKY/WX    TMP DP  RH WIND       PRES   REMARKS
FERGUS FALLS   CLEAR     37  37 100 NE5       30.09S
WHEATON        CLEAR     34  30  86 NW3       30.08R
MORRIS         CLOUDY    36  32  87 CALM      30.06R
ALEXANDRIA     PTCLDY    36  34  92 NW3       30.07R
ELBOW LAKE     FAIR      36  34  93 CALM      30.06S
WADENA         CLEAR     28  27  93 CALM      30.05R FOG
GLENWOOD       PTCLDY    39  34  81 CALM      30.06R
APPLETON       CLOUDY    37  34  87 CALM      30.06R
BENSON         CLOUDY    34  28  80 N5        30.08R WCI  30
ORTONVILLE     CLOUDY    39  34  81 CALM      30.06R
MADISON        CLOUDY    41  37  87 NE3       30.05S
WILLMAR        FAIR      37  34  87 CALM      30.06R
$$
MNZ033>034-036-042>043-049>051-058-059-280800-
   Central Minnesota

CITY           SKY/WX    TMP DP  RH WIND       PRES   REMARKS
ST CLOUD       CLEAR     31  31 100 CALM      30.05R
SAUK CENTRE    FAIR      32  30  94 CALM      30.06R
PAYNESVILLE      N/A     32  32 100 CALM      30.06R
AITKIN         CLEAR     28  25  86 CALM      30.05R
PINE RIVER     CLEAR     28  25  86 CALM      30.09R
BRAINERD       CLEAR     29  27  92 CALM      30.06R
LONG PRAIRIE   FAIR      32  32 100 CALM      30.06R
LITTLE FALLS   CLEAR     30  28  93 CALM      30.07R
LITCHFIELD     CLOUDY    39  37  93 CALM      30.06R
BUFFALO        CLEAR     34  31  89 CALM      30.06R
MAPLE LAKE     CLEAR     33  32  97 CALM      30.06R
HUTCHINSON     CLOUDY    34  34  98 CALM      30.06R
$$
MNZ037-044-045-052-053-280800-
   East Central Minnesota

CITY           SKY/WX    TMP DP  RH WIND       PRES   REMARKS
PRINCETON      CLEAR     28  28 100 CALM      30.06R
MORA           CLEAR     28  28 100 CALM      30.07S
CAMBRIDGE      CLEAR     34  28  80 CALM      30.04R
RUSH CITY      CLEAR     32  29  90 N3        30.05S
MOOSE LAKE     PTCLDY    28  27  93 CALM      30.05S
CLOQUET        CLEAR     28  27  93 CALM      30.06R
MCGREGOR       CLEAR     30  28  93 CALM      30.07R
$$
MNZ071>073-080-081-089-090-097-098-280800-
   Southwest Minnesota

CITY           SKY/WX    TMP DP  RH WIND       PRES   REMARKS
MONTEVIDEO     CLOUDY    37  30  75 CALM      30.07R
GRANITE FALLS  CLOUDY    37  33  86 S3        30.07R
CANBY          CLOUDY    41  38  89 CALM      30.06R
MARSHALL       CLOUDY    38  35  89 W7        30.06R
REDWOOD FALLS  PTCLDY    41  33  73 SW3       30.05R
OLIVIA         PTCLDY    39  32  75 CALM      30.04S
PIPESTONE      MOCLDY    39  34  81 CALM      30.04S
WINDOM         CLEAR     34  34 100 CALM      30.05R FOG
WORTHINGTON    CLOUDY    35  33  92 W5        30.06R WCI  31
JACKSON        CLEAR     36  34  93 W5        30.05R
TRACY          CLOUDY    43  39  84 CALM      30.05R
SLAYTON        MOCLDY    36  35  94 W3        30.06R
$$
MNZ065>067-074>077-082>085-091>093-280800-
   South Central Minnesota

CITY           SKY/WX    TMP DP  RH WIND       PRES   REMARKS
MANKATO        MOCLDY    41  39  93 S5        30.05R
NEW ULM        PTCLDY    37  32  81 CALM      30.05R
ST JAMES       PTCLDY    37  36  93 CALM      30.06R
FAIRMONT       CLOUDY    37  35  92 NW3       30.05R
GLENCOE        PTCLDY    36  35  94 CALM      30.04R
FARIBAULT      MOCLDY    34  34 100 CALM      30.06R FOG
OWATONNA       CLEAR     32  30  93 CALM      30.05R
WASECA         CLEAR     34  32  93 CALM      30.06R FOG
ALBERT LEA     CLEAR     34  34 100 CALM      30.04R FOG
$$
MNZ078>079-086>088-094>096-280800-
   Southeast Minnesota

CITY           SKY/WX    TMP DP  RH WIND       PRES   REMARKS
ROCHESTER      FOG       36  36 100 NE5       30.04R VSB 3/4
RED WING       CLOUDY    30  30 100 CALM      30.05R FOG
STANTON        CLOUDY    32  31  95 CALM      30.05R
DODGE CENTER   FOG       36  34  93 CALM      30.05R VSB 1/4
WINONA         CLOUDY    34  34 100 CALM      30.06R
AUSTIN         CLEAR     36  34  93 CALM      30.04R FOG
PRESTON        CLOUDY    39  36  91 CALM      30.04R
$$
ABBREVIATIONS USED IN REMARKS
   TC - TEMPERATURES IN CELSIUS
  WCI - WIND CHILL INDEX
   HX - HEAT INDEX
  VSB - VISIBILITY
$$




USA.gov is the U.S. government's official web portal to all federal, state and local government web resources and services.